| time (UTC) | temp F | wind direction | speed MPH | gust MPH | rain 1hr in | rain 24hr in | rain mn in | humidity % | barometer mb |
| 20260901234120 | 97 | 100 | 3.0 | 10.0 | 0.00 | 0.00 | 0.00 | 45 | 1013.0 |
| 20260901233847 | 97 | 107 | 3.0 | 8.0 | 0.00 | 0.00 | 0.00 | 45 | 1012.9 |
| 20260901233109 | 97 | 39 | 4.0 | 12.0 | 0.00 | 0.00 | 0.00 | 45 | 1012.9 |
| 20260901232833 | 97 | 69 | 4.0 | 12.0 | 0.00 | 0.00 | 0.00 | 44 | 1012.9 |
| 20260901232057 | 97 | 13 | 2.0 | 8.0 | 0.00 | 0.00 | 0.00 | 43 | 1012.9 |
| 20260901231551 | 98 | 101 | 3.0 | 10.0 | 0.00 | 0.00 | 0.00 | 44 | 1012.8 |
| 20260901231045 | 98 | 17 | 4.0 | 10.0 | 0.00 | 0.00 | 0.00 | 44 | 1012.8 |
| 20260901230810 | 98 | 128 | 4.0 | 11.0 | 0.00 | 0.00 | 0.00 | 44 | 1012.8 |
| 20260901230305 | 98 | 129 | 4.0 | 11.0 | 0.00 | 0.00 | 0.00 | 44 | 1012.8 |
| 20260901225528 | 98 | 149 | 4.0 | 11.0 | 0.00 | 0.00 | 0.00 | 43 | 1012.9 |
| 20260901225522 | 98 | 169 | 2.0 | 11.0 | 0.00 | 0.00 | 0.00 | 43 | 1012.9 |
| 20260901224515 | 98 | 157 | 3.0 | 11.0 | 0.00 | 0.00 | 0.00 | 44 | 1012.8 |
| 20260901224008 | 98 | 121 | 3.0 | 11.0 | 0.00 | 0.00 | 0.00 | 43 | 1012.6 |
| 20260901223503 | 98 | 163 | 2.0 | 5.0 | 0.00 | 0.00 | 0.00 | 43 | 1012.6 |
| 20260901222957 | 98 | 138 | 2.0 | 6.0 | 0.00 | 0.00 | 0.00 | 42 | 1012.8 |
| 20260901222450 | 98 | 152 | 2.0 | 10.0 | 0.00 | 0.00 | 0.00 | 41 | 1012.9 |
| 20260901221945 | 98 | 30 | 1.0 | 10.0 | 0.00 | 0.00 | 0.00 | 42 | 1012.9 |
| 20260901221439 | 98 | 51 | 1.0 | 5.0 | 0.00 | 0.00 | 0.00 | 42 | 1013.0 |
| 20260901220933 | 98 | 34 | 2.0 | 5.0 | 0.00 | 0.00 | 0.00 | 43 | 1012.9 |
| 20260901220426 | 98 | 39 | 3.0 | 8.0 | 0.00 | 0.00 | 0.00 | 44 | 1012.9 |
| 20260901215921 | 98 | 14 | 3.0 | 9.0 | 0.00 | 0.00 | 0.00 | 43 | 1013.1 |
| 20260901215415 | 98 | 5 | 3.0 | 10.0 | 0.00 | 0.00 | 0.00 | 43 | 1013.1 |
| 20260901214909 | 98 | 41 | 4.0 | 11.0 | 0.00 | 0.00 | 0.00 | 43 | 1013.0 |
| 20260901214403 | 99 | 113 | 3.0 | 11.0 | 0.00 | 0.00 | 0.00 | 42 | 1013.0 |
| 20260901214128 | 99 | 0 | 3.0 | 7.0 | 0.00 | 0.00 | 0.00 | 43 | 1013.1 |
| 20260901213623 | 99 | 175 | 2.0 | 7.0 | 0.00 | 0.00 | 0.00 | 43 | 1013.1 |
| 20260901212845 | 99 | 18 | 1.0 | 6.0 | 0.00 | 0.00 | 0.00 | 43 | 1013.1 |
| 20260901212338 | 99 | 16 | 2.0 | 6.0 | 0.00 | 0.00 | 0.00 | 42 | 1013.1 |
| 20260901211833 | 99 | 30 | 3.0 | 8.0 | 0.00 | 0.00 | 0.00 | 42 | 1013.2 |
| 20260901211326 | 99 | 19 | 4.0 | 10.0 | 0.00 | 0.00 | 0.00 | 42 | 1013.3 |
| 20260901211052 | 100 | 49 | 3.0 | 10.0 | 0.00 | 0.00 | 0.00 | 42 | 1013.4 |
| 20260901210315 | 100 | 103 | 2.0 | 7.0 | 0.00 | 0.00 | 0.00 | 40 | 1013.4 |
| 20260901205809 | 101 | 55 | 3.0 | 8.0 | 0.00 | 0.00 | 0.00 | 41 | 1013.5 |
| 20260901205306 | 102 | 0 | 3.0 | 8.0 | 0.00 | 0.00 | 0.00 | 39 | 1013.5 |
| 20260901204759 | 102 | 13 | 2.0 | 8.0 | 0.00 | 0.00 | 0.00 | 39 | 1013.6 |
| 20260901204753 | 103 | 167 | 2.0 | 7.0 | 0.00 | 0.00 | 0.00 | 38 | 1013.7 |
| 20260901203744 | 103 | 165 | 2.0 | 7.0 | 0.00 | 0.00 | 0.00 | 39 | 1013.7 |
| 20260901203238 | 103 | 105 | 2.0 | 7.0 | 0.00 | 0.00 | 0.00 | 38 | 1013.8 |
| 20260901202733 | 104 | 133 | 2.0 | 6.0 | 0.00 | 0.00 | 0.00 | 37 | 1013.8 |
| 20260901202226 | 104 | 140 | 2.0 | 9.0 | 0.00 | 0.00 | 0.00 | 38 | 1013.8 |
| 20260901201720 | 104 | 153 | 2.0 | 9.0 | 0.00 | 0.00 | 0.00 | 38 | 1014.0 |
| 20260901201215 | 103 | 161 | 2.0 | 6.0 | 0.00 | 0.00 | 0.00 | 39 | 1014.0 |
| 20260901200709 | 103 | 152 | 2.0 | 6.0 | 0.00 | 0.00 | 0.00 | 37 | 1014.2 |
| 20260901200213 | 104 | 13 | 2.0 | 7.0 | 0.00 | 0.00 | 0.00 | 37 | 1014.3 |
| 20260901200209 | 104 | 12 | 1.0 | 7.0 | 0.00 | 0.00 | 0.00 | 36 | 1014.3 |
| 20260901195823 | 104 | 9 | 3.0 | 8.0 | 0.00 | 0.00 | 0.00 | 37 | 1014.4 |
| 20260901194706 | 104 | 32 | 3.0 | 8.0 | 0.00 | 0.00 | 0.00 | 39 | 1014.6 |
| 20260901194206 | 104 | 126 | 3.0 | 8.0 | 0.00 | 0.00 | 0.00 | 39 | 1014.5 |
| 20260901193707 | 104 | 164 | 3.0 | 8.0 | 0.00 | 0.00 | 0.00 | 39 | 1014.6 |
| 20260901193204 | 103 | 154 | 2.0 | 9.0 | 0.00 | 0.00 | 0.00 | 38 | 1014.5 |
| 20260901192703 | 103 | 9 | 3.0 | 9.0 | 0.00 | 0.00 | 0.00 | 39 | 1014.6 |
| 20260901192202 | 103 | 156 | 4.0 | 9.0 | 0.00 | 0.00 | 0.00 | 39 | 1014.6 |
| 20260901191702 | 102 | 148 | 3.0 | 10.0 | 0.00 | 0.00 | 0.00 | 41 | 1014.7 |
| 20260901191201 | 102 | 355 | 2.0 | 10.0 | 0.00 | 0.00 | 0.00 | 40 | 1014.8 |
| 20260901190659 | 101 | 344 | 3.0 | 11.0 | 0.00 | 0.00 | 0.00 | 40 | 1014.8 |
| 20260901190200 | 101 | 148 | 4.0 | 11.0 | 0.00 | 0.00 | 0.00 | 41 | 1014.9 |
| 20260901185700 | 101 | 154 | 3.0 | 7.0 | 0.00 | 0.00 | 0.00 | 41 | 1014.9 |
| 20260901185201 | 101 | 90 | 2.0 | 8.0 | 0.00 | 0.00 | 0.00 | 42 | 1015.1 |
| 20260901184657 | 101 | 159 | 3.0 | 8.0 | 0.00 | 0.00 | 0.00 | 42 | 1015.1 |
| 20260901184157 | 100 | 34 | 3.0 | 9.0 | 0.00 | 0.00 | 0.00 | 44 | 1015.3 |
| 20260901183657 | 99 | 153 | 3.0 | 9.0 | 0.00 | 0.00 | 0.00 | 44 | 1015.3 |
| 20260901183151 | 99 | 61 | 3.0 | 9.0 | 0.00 | 0.00 | 0.00 | 47 | 1015.5 |
| 20260901182644 | 98 | 192 | 4.0 | 9.0 | 0.00 | 0.00 | 0.00 | 45 | 1015.6 |
| 20260901182142 | 98 | 33 | 5.0 | 10.0 | 0.00 | 0.00 | 0.00 | 45 | 1015.6 |
| 20260901181641 | 98 | 129 | 4.0 | 10.0 | 0.00 | 0.00 | 0.00 | 46 | 1015.7 |
| 20260901181143 | 98 | 132 | 4.0 | 10.0 | 0.00 | 0.00 | 0.00 | 47 | 1015.6 |
| 20260901180642 | 98 | 30 | 3.0 | 9.0 | 0.00 | 0.00 | 0.00 | 46 | 1015.8 |
| 20260901180142 | 98 | 98 | 4.0 | 11.0 | 0.00 | 0.00 | 0.00 | 47 | 1015.9 |
| 20260901175641 | 98 | 340 | 3.0 | 11.0 | 0.00 | 0.00 | 0.00 | 47 | 1015.9 |
| 20260901175142 | 97 | 155 | 3.0 | 8.0 | 0.00 | 0.00 | 0.00 | 48 | 1015.9 |
| 20260901174642 | 97 | 19 | 3.0 | 8.0 | 0.00 | 0.00 | 0.00 | 50 | 1016.0 |
| 20260901174143 | 96 | 124 | 3.0 | 8.0 | 0.00 | 0.00 | 0.00 | 49 | 1016.1 |
| 20260901173913 | 96 | 163 | 3.0 | 10.0 | 0.00 | 0.00 | 0.00 | 49 | 1016.1 |
| 20260901173141 | 96 | 154 | 3.0 | 10.0 | 0.00 | 0.00 | 0.00 | 49 | 1016.4 |
| 20260901172641 | 96 | 121 | 3.0 | 8.0 | 0.00 | 0.00 | 0.00 | 50 | 1016.5 |
| 20260901172142 | 95 | 102 | 2.0 | 8.0 | 0.00 | 0.00 | 0.00 | 51 | 1016.5 |
| 20260901171641 | 95 | 157 | 2.0 | 8.0 | 0.00 | 0.00 | 0.00 | 50 | 1016.4 |
| 20260901171412 | 95 | 177 | 3.0 | 8.0 | 0.00 | 0.00 | 0.00 | 50 | 1016.4 |
| 20260901170641 | 94 | 185 | 3.0 | 8.0 | 0.00 | 0.00 | 0.00 | 51 | 1016.5 |
| 20260901170141 | 94 | 351 | 3.0 | 8.0 | 0.00 | 0.00 | 0.00 | 54 | 1016.6 |
| 20260901165641 | 94 | 0 | 2.0 | 7.0 | 0.00 | 0.00 | 0.00 | 53 | 1016.7 |
| 20260901165412 | 93 | 146 | 2.0 | 7.0 | 0.00 | 0.00 | 0.00 | 54 | 1016.8 |
| 20260901164642 | 93 | 123 | 2.0 | 7.0 | 0.00 | 0.00 | 0.00 | 55 | 1016.9 |
| 20260901164412 | 92 | 42 | 1.0 | 4.0 | 0.00 | 0.00 | 0.00 | 59 | 1016.8 |
| 20260901164258 | 92 | 30 | 2.0 | 4.0 | 0.00 | 0.00 | 0.00 | 60 | 1016.9 |
| 20260901163413 | 91 | 31 | 2.0 | 4.0 | 0.00 | 0.00 | 0.00 | 58 | 1016.9 |
| 20260901162640 | 91 | 340 | 1.0 | 4.0 | 0.00 | 0.00 | 0.00 | 61 | 1016.9 |
| 20260901162138 | 90 | 180 | 1.0 | 3.0 | 0.00 | 0.00 | 0.00 | 64 | 1017.0 |
| 20260901161638 | 90 | 180 | 2.0 | 4.0 | 0.00 | 0.00 | 0.00 | 63 | 1017.1 |
| 20260901161137 | 89 | 178 | 2.0 | 4.0 | 0.00 | 0.00 | 0.00 | 64 | 1017.1 |
| 20260901160639 | 89 | 175 | 1.0 | 4.0 | 0.00 | 0.00 | 0.00 | 65 | 1017.1 |
| 20260901160137 | 88 | 177 | 1.0 | 4.0 | 0.00 | 0.00 | 0.00 | 66 | 1017.2 |
| 20260901155638 | 88 | 198 | 1.0 | 3.0 | 0.00 | 0.00 | 0.00 | 67 | 1017.1 |
| 20260901155138 | 87 | 198 | 0.0 | 2.0 | 0.00 | 0.00 | 0.00 | 68 | 1017.1 |
| 20260901154635 | 87 | 198 | 0.0 | 1.0 | 0.00 | 0.00 | 0.00 | 69 | 1017.1 |
| 20260901154136 | 87 | 198 | 0.0 | 1.0 | 0.00 | 0.00 | 0.00 | 70 | 1017.2 |
| 20260901153629 | 86 | 198 | 0.0 | 3.0 | 0.00 | 0.00 | 0.00 | 71 | 1017.1 |
| 20260901153124 | 85 | 198 | 0.0 | 3.0 | 0.00 | 0.00 | 0.00 | 72 | 1017.0 |
| 20260901152618 | 85 | 198 | 1.0 | 4.0 | 0.00 | 0.00 | 0.00 | 74 | 1017.1 |
| 20260901152112 | 84 | 198 | 1.0 | 4.0 | 0.00 | 0.00 | 0.00 | 75 | 1017.1 |
| 20260901151606 | 84 | 329 | 1.0 | 4.0 | 0.00 | 0.00 | 0.00 | 77 | 1017.0 |
| 20260901151059 | 83 | 329 | 1.0 | 4.0 | 0.00 | 0.00 | 0.00 | 78 | 1017.1 |
| 20260901150553 | 83 | 330 | 1.0 | 4.0 | 0.00 | 0.00 | 0.00 | 79 | 1017.1 |
| 20260901150048 | 83 | 331 | 1.0 | 4.0 | 0.00 | 0.00 | 0.00 | 79 | 1017.1 |
| 20260901145542 | 82 | 344 | 0.0 | 0.0 | 0.00 | 0.00 | 0.00 | 80 | 1017.1 |
| 20260901145036 | 82 | 344 | 1.0 | 5.0 | 0.00 | 0.00 | 0.00 | 81 | 1017.1 |
| 20260901144530 | 82 | 344 | 1.0 | 5.0 | 0.00 | 0.00 | 0.00 | 82 | 1017.1 |
| 20260901144024 | 81 | 345 | 0.0 | 4.0 | 0.00 | 0.00 | 0.00 | 83 | 1017.2 |
| 20260901143517 | 81 | 345 | 0.0 | 4.0 | 0.00 | 0.00 | 0.00 | 83 | 1017.2 |
| 20260901143012 | 81 | 346 | 1.0 | 3.0 | 0.00 | 0.00 | 0.00 | 84 | 1017.2 |
| 20260901142506 | 80 | 347 | 1.0 | 4.0 | 0.00 | 0.00 | 0.00 | 84 | 1017.1 |
| 20260901142231 | 80 | 346 | 1.0 | 4.0 | 0.00 | 0.00 | 0.00 | 85 | 1017.1 |
| 20260901141454 | 80 | 346 | 1.0 | 5.0 | 0.00 | 0.00 | 0.00 | 85 | 1017.2 |
| 20260901140948 | 80 | 346 | 0.0 | 5.0 | 0.00 | 0.00 | 0.00 | 85 | 1017.2 |
| 20260901140443 | 79 | 180 | 0.0 | 2.0 | 0.00 | 0.00 | 0.00 | 85 | 1017.3 |
| 20260901135936 | 79 | 178 | 0.0 | 2.0 | 0.00 | 0.00 | 0.00 | 85 | 1017.3 |
| 20260901135430 | 79 | 178 | 0.0 | 1.0 | 0.00 | 0.00 | 0.00 | 85 | 1017.2 |
| 20260901135156 | 78 | 178 | 0.0 | 0.0 | 0.00 | 0.00 | 0.00 | 85 | 1017.2 |
| 20260901134417 | 78 | 178 | 0.0 | 0.0 | 0.00 | 0.00 | 0.00 | 85 | 1017.1 |
| 20260901133912 | 78 | 178 | 0.0 | 0.0 | 0.00 | 0.00 | 0.00 | 85 | 1017.1 |
| 20260901133406 | 78 | 178 | 0.0 | 0.0 | 0.00 | 0.00 | 0.00 | 85 | 1017.0 |
| 20260901132859 | 77 | 178 | 0.0 | 0.0 | 0.00 | 0.00 | 0.00 | 84 | 1016.9 |
| 20260901132354 | 77 | 178 | 0.0 | 0.0 | 0.00 | 0.00 | 0.00 | 84 | 1017.0 |
| 20260901131848 | 77 | 178 | 0.0 | 0.0 | 0.00 | 0.00 | 0.00 | 84 | 1016.9 |
| 20260901131342 | 77 | 178 | 0.0 | 0.0 | 0.00 | 0.00 | 0.00 | 84 | 1016.9 |
| 20260901130836 | 77 | 178 | 0.0 | 0.0 | 0.00 | 0.00 | 0.00 | 84 | 1016.8 |
| 20260901130330 | 77 | 178 | 0.0 | 0.0 | 0.00 | 0.00 | 0.00 | 84 | 1016.7 |
| 20260901125823 | 77 | 178 | 0.0 | 0.0 | 0.00 | 0.00 | 0.00 | 84 | 1016.7 |
| 20260901125318 | 77 | 178 | 0.0 | 0.0 | 0.00 | 0.00 | 0.00 | 83 | 1016.7 |
| 20260901124812 | 77 | 178 | 0.0 | 0.0 | 0.00 | 0.00 | 0.00 | 83 | 1016.6 |
| 20260901124807 | 77 | 178 | 0.0 | 0.0 | 0.00 | 0.00 | 0.00 | 83 | 1016.6 |
| 20260901123759 | 77 | 178 | 0.0 | 0.0 | 0.00 | 0.00 | 0.00 | 83 | 1016.6 |
| 20260901123253 | 77 | 178 | 0.0 | 0.0 | 0.00 | 0.00 | 0.00 | 83 | 1016.5 |
| 20260901122748 | 77 | 178 | 0.0 | 0.0 | 0.00 | 0.00 | 0.00 | 83 | 1016.4 |
| 20260901122242 | 77 | 178 | 0.0 | 0.0 | 0.00 | 0.00 | 0.00 | 83 | 1016.4 |
| 20260901121736 | 77 | 178 | 0.0 | 0.0 | 0.00 | 0.00 | 0.00 | 83 | 1016.3 |
| 20260901121230 | 78 | 178 | 0.0 | 0.0 | 0.00 | 0.00 | 0.00 | 83 | 1016.4 |
| 20260901120724 | 78 | 178 | 0.0 | 0.0 | 0.00 | 0.00 | 0.00 | 83 | 1016.3 |
| 20260901120218 | 78 | 178 | 0.0 | 0.0 | 0.00 | 0.00 | 0.00 | 83 | 1016.4 |
| 20260901115712 | 78 | 178 | 0.0 | 0.0 | 0.00 | 0.00 | 0.00 | 82 | 1016.4 |
| 20260901115206 | 78 | 178 | 0.0 | 0.0 | 0.00 | 0.00 | 0.00 | 82 | 1016.5 |
| 20260901114706 | 78 | 178 | 0.0 | 0.0 | 0.00 | 0.00 | 0.00 | 82 | 1016.4 |
| 20260901114203 | 78 | 178 | 0.0 | 0.0 | 0.00 | 0.00 | 0.00 | 82 | 1016.5 |
| 20260901113702 | 78 | 178 | 0.0 | 0.0 | 0.00 | 0.00 | 0.00 | 82 | 1016.4 |
| 20260901113159 | 78 | 178 | 0.0 | 0.0 | 0.00 | 0.00 | 0.00 | 82 | 1016.3 |
| 20260901112656 | 78 | 178 | 0.0 | 1.0 | 0.00 | 0.00 | 0.00 | 82 | 1016.2 |
| 20260901112157 | 78 | 178 | 0.0 | 1.0 | 0.00 | 0.00 | 0.00 | 82 | 1016.2 |
| 20260901111657 | 78 | 178 | 0.0 | 1.0 | 0.00 | 0.00 | 0.00 | 82 | 1016.2 |
| 20260901111155 | 78 | 178 | 0.0 | 1.0 | 0.00 | 0.00 | 0.00 | 82 | 1016.2 |
| 20260901110925 | 78 | 178 | 0.0 | 1.0 | 0.00 | 0.00 | 0.00 | 82 | 1016.2 |
| 20260901110154 | 78 | 178 | 0.0 | 2.0 | 0.00 | 0.00 | 0.00 | 81 | 1016.2 |
| 20260901105653 | 78 | 178 | 0.0 | 2.0 | 0.00 | 0.00 | 0.00 | 81 | 1016.1 |
| 20260901105150 | 78 | 178 | 0.0 | 1.0 | 0.00 | 0.00 | 0.00 | 81 | 1016.0 |
| 20260901104650 | 78 | 178 | 0.0 | 2.0 | 0.00 | 0.00 | 0.00 | 81 | 1016.1 |
| 20260901104148 | 78 | 178 | 0.0 | 2.0 | 0.00 | 0.00 | 0.00 | 81 | 1016.0 |
| 20260901103644 | 78 | 177 | 0.0 | 2.0 | 0.00 | 0.00 | 0.00 | 81 | 1016.0 |
| 20260901103144 | 78 | 176 | 0.0 | 0.0 | 0.00 | 0.00 | 0.00 | 80 | 1016.0 |
| 20260901102644 | 79 | 177 | 0.0 | 0.0 | 0.00 | 0.00 | 0.00 | 80 | 1016.0 |
| 20260901102144 | 79 | 177 | 0.0 | 2.0 | 0.00 | 0.00 | 0.00 | 80 | 1016.2 |
| 20260901101918 | 79 | 177 | 0.0 | 2.0 | 0.00 | 0.00 | 0.00 | 80 | 1016.1 |
| 20260901101412 | 79 | 177 | 0.0 | 1.0 | 0.00 | 0.00 | 0.00 | 80 | 1016.1 |
| 20260901100911 | 79 | 177 | 0.0 | 1.0 | 0.00 | 0.00 | 0.00 | 80 | 1016.1 |
| 20260901100141 | 79 | 177 | 0.0 | 1.0 | 0.00 | 0.00 | 0.00 | 79 | 1016.1 |
| 20260901095640 | 79 | 177 | 0.0 | 2.0 | 0.00 | 0.00 | 0.00 | 79 | 1016.1 |
| 20260901095142 | 79 | 177 | 0.0 | 2.0 | 0.00 | 0.00 | 0.00 | 79 | 1016.1 |
| 20260901094642 | 79 | 177 | 0.0 | 2.0 | 0.00 | 0.00 | 0.00 | 79 | 1016.2 |
| 20260901094140 | 79 | 177 | 0.0 | 3.0 | 0.00 | 0.00 | 0.00 | 79 | 1016.3 |
| 20260901093642 | 79 | 177 | 1.0 | 3.0 | 0.00 | 0.00 | 0.00 | 79 | 1016.4 |
| 20260901093142 | 79 | 176 | 1.0 | 3.0 | 0.00 | 0.00 | 0.00 | 79 | 1016.4 |
| 20260901092638 | 80 | 176 | 2.0 | 3.0 | 0.00 | 0.00 | 0.00 | 78 | 1016.5 |
| 20260901092138 | 80 | 176 | 1.0 | 3.0 | 0.00 | 0.00 | 0.00 | 78 | 1016.4 |
| 20260901091908 | 80 | 176 | 0.0 | 2.0 | 0.00 | 0.00 | 0.00 | 78 | 1016.4 |
| 20260901091136 | 80 | 176 | 1.0 | 3.0 | 0.00 | 0.00 | 0.00 | 78 | 1016.4 |
| 20260901090637 | 80 | 176 | 1.0 | 3.0 | 0.00 | 0.00 | 0.00 | 78 | 1016.2 |
| 20260901090136 | 80 | 176 | 1.0 | 3.0 | 0.00 | 0.00 | 0.00 | 77 | 1016.2 |
| 20260901085637 | 80 | 177 | 1.0 | 3.0 | 0.00 | 0.00 | 0.00 | 77 | 1016.2 |
| 20260901085137 | 80 | 177 | 1.0 | 3.0 | 0.00 | 0.00 | 0.00 | 77 | 1016.2 |
| 20260901084909 | 80 | 177 | 1.0 | 3.0 | 0.00 | 0.00 | 0.00 | 77 | 1016.1 |
| 20260901084136 | 80 | 177 | 1.0 | 4.0 | 0.00 | 0.00 | 0.00 | 76 | 1016.0 |
| 20260901083636 | 80 | 177 | 1.0 | 4.0 | 0.00 | 0.00 | 0.00 | 76 | 1016.1 |
| 20260901083136 | 80 | 177 | 1.0 | 4.0 | 0.00 | 0.00 | 0.00 | 76 | 1016.1 |
| 20260901082636 | 80 | 177 | 1.0 | 4.0 | 0.00 | 0.00 | 0.00 | 76 | 1016.1 |
| 20260901082137 | 81 | 178 | 1.0 | 3.0 | 0.00 | 0.00 | 0.00 | 75 | 1016.1 |
| 20260901081636 | 81 | 177 | 2.0 | 3.0 | 0.00 | 0.00 | 0.00 | 75 | 1016.1 |
| 20260901081136 | 81 | 178 | 2.0 | 4.0 | 0.00 | 0.00 | 0.00 | 75 | 1016.1 |
| 20260901080633 | 81 | 178 | 2.0 | 4.0 | 0.00 | 0.00 | 0.00 | 74 | 1016.0 |
| 20260901080132 | 81 | 178 | 2.0 | 5.0 | 0.00 | 0.00 | 0.00 | 74 | 1016.2 |
| 20260901075632 | 81 | 178 | 2.0 | 5.0 | 0.00 | 0.00 | 0.00 | 74 | 1016.1 |
| 20260901075130 | 81 | 181 | 2.0 | 4.0 | 0.00 | 0.00 | 0.00 | 73 | 1016.2 |
| 20260901074632 | 81 | 184 | 1.0 | 5.0 | 0.00 | 0.00 | 0.00 | 73 | 1016.1 |
| 20260901074130 | 81 | 185 | 1.0 | 5.0 | 0.00 | 0.00 | 0.00 | 73 | 1016.2 |
| 20260901073629 | 82 | 185 | 1.0 | 3.0 | 0.00 | 0.00 | 0.00 | 73 | 1016.2 |
| 20260901073127 | 82 | 185 | 0.0 | 3.0 | 0.00 | 0.00 | 0.00 | 72 | 1016.3 |
| 20260901072627 | 82 | 185 | 0.0 | 1.0 | 0.00 | 0.00 | 0.00 | 72 | 1016.2 |
| 20260901072121 | 82 | 185 | 0.0 | 2.0 | 0.00 | 0.00 | 0.00 | 72 | 1016.2 |
| 20260901071614 | 82 | 185 | 1.0 | 3.0 | 0.00 | 0.00 | 0.00 | 72 | 1016.2 |
| 20260901071109 | 82 | 185 | 1.0 | 3.0 | 0.00 | 0.00 | 0.00 | 72 | 1016.1 |
| 20260901070603 | 82 | 185 | 1.0 | 3.0 | 0.00 | 0.00 | 0.00 | 71 | 1016.2 |
| 20260901070056 | 82 | 185 | 1.0 | 3.0 | 0.00 | 0.00 | 0.00 | 71 | 1016.2 |
| 20260901065551 | 82 | 185 | 2.0 | 4.0 | 0.00 | 0.00 | 0.00 | 71 | 1016.2 |
| 20260901065045 | 82 | 186 | 2.0 | 6.0 | 0.00 | 0.00 | 0.00 | 70 | 1016.2 |
| 20260901064811 | 83 | 186 | 2.0 | 6.0 | 0.00 | 0.00 | 0.00 | 70 | 1016.3 |
| 20260901064033 | 83 | 147 | 1.0 | 5.0 | 0.00 | 0.00 | 0.00 | 70 | 1016.2 |
| 20260901063527 | 83 | 147 | 2.0 | 4.0 | 0.00 | 0.00 | 0.00 | 69 | 1016.2 |
| 20260901063021 | 83 | 147 | 2.0 | 5.0 | 0.00 | 0.00 | 0.00 | 69 | 1016.2 |
| 20260901062516 | 83 | 148 | 3.0 | 7.0 | 0.00 | 0.00 | 0.00 | 69 | 1016.1 |
| 20260901062009 | 83 | 148 | 3.0 | 7.0 | 0.00 | 0.00 | 0.00 | 69 | 1016.0 |
| 20260901061505 | 83 | 148 | 3.0 | 8.0 | 0.00 | 0.00 | 0.00 | 68 | 1016.0 |
| 20260901061459 | 83 | 140 | 3.0 | 8.0 | 0.00 | 0.00 | 0.00 | 68 | 1015.9 |
| 20260901060451 | 84 | 134 | 4.0 | 9.0 | 0.00 | 0.00 | 0.00 | 67 | 1015.9 |
| 20260901060215 | 84 | 169 | 4.0 | 9.0 | 0.00 | 0.00 | 0.00 | 67 | 1015.9 |
| 20260901055439 | 84 | 152 | 3.0 | 8.0 | 0.00 | 0.00 | 0.00 | 67 | 1015.9 |
| 20260901054933 | 84 | 150 | 4.0 | 8.0 | 0.00 | 0.00 | 0.00 | 66 | 1015.8 |
| 20260901054427 | 84 | 161 | 3.0 | 9.0 | 0.00 | 0.00 | 0.00 | 66 | 1015.8 |
| 20260901053921 | 84 | 153 | 3.0 | 9.0 | 0.00 | 0.00 | 0.00 | 66 | 1015.9 |
| 20260901053416 | 85 | 187 | 4.0 | 9.0 | 0.00 | 0.00 | 0.00 | 66 | 1015.9 |
| 20260901052916 | 85 | 176 | 4.0 | 10.0 | 0.00 | 0.00 | 0.00 | 66 | 1015.9 |
| 20260901052417 | 85 | 134 | 4.0 | 10.0 | 0.00 | 0.00 | 0.00 | 66 | 1015.9 |
| 20260901051916 | 85 | 140 | 4.0 | 10.0 | 0.00 | 0.00 | 0.00 | 66 | 1015.9 |
| 20260901051417 | 85 | 176 | 4.0 | 9.0 | 0.00 | 0.00 | 0.00 | 66 | 1015.7 |
| 20260901050916 | 85 | 179 | 4.0 | 9.0 | 0.00 | 0.00 | 0.00 | 66 | 1015.6 |
| 20260901050421 | 86 | 154 | 3.0 | 11.0 | 0.00 | 0.00 | 0.00 | 66 | 1015.7 |
| 20260901050416 | 85 | 183 | 4.0 | 11.0 | 0.00 | 0.00 | 0.00 | 66 | 1015.7 |
| 20260901045645 | 86 | 182 | 4.0 | 12.0 | 0.00 | 0.00 | 0.00 | 66 | 1015.7 |
| 20260901044914 | 86 | 129 | 4.0 | 12.0 | 0.00 | 0.00 | 0.00 | 65 | 1015.7 |
| 20260901044414 | 86 | 163 | 4.0 | 9.0 | 0.00 | 0.00 | 0.00 | 65 | 1015.6 |
| 20260901043915 | 86 | 155 | 4.0 | 9.0 | 0.00 | 0.00 | 0.00 | 65 | 1015.5 |
| 20260901043413 | 86 | 150 | 4.0 | 10.0 | 0.00 | 0.00 | 0.00 | 64 | 1015.4 |
| 20260901042907 | 86 | 186 | 4.0 | 10.0 | 0.00 | 0.00 | 0.00 | 64 | 1015.5 |
| 20260901042401 | 86 | 168 | 4.0 | 9.0 | 0.00 | 0.00 | 0.00 | 63 | 1015.5 |
| 20260901042356 | 87 | 147 | 3.0 | 9.0 | 0.00 | 0.00 | 0.00 | 63 | 1015.3 |
| 20260901041350 | 87 | 153 | 4.0 | 9.0 | 0.00 | 0.00 | 0.00 | 63 | 1015.3 |
| 20260901041113 | 87 | 154 | 4.0 | 10.0 | 0.00 | 0.00 | 0.00 | 63 | 1015.3 |
| 20260901040337 | 87 | 146 | 4.0 | 10.0 | 0.00 | 0.00 | 0.00 | 62 | 1015.4 |
| 20260901035831 | 87 | 150 | 3.0 | 9.0 | 0.00 | 0.00 | 0.00 | 62 | 1015.3 |
| 20260901035325 | 87 | 138 | 3.0 | 7.0 | 0.00 | 0.00 | 0.00 | 62 | 1015.2 |
| 20260901034818 | 87 | 159 | 4.0 | 11.0 | 0.00 | 0.00 | 0.00 | 61 | 1015.4 |
| 20260901034313 | 87 | 162 | 5.0 | 14.0 | 0.00 | 0.00 | 0.00 | 61 | 1015.3 |
| 20260901034039 | 87 | 155 | 5.0 | 14.0 | 0.00 | 0.00 | 0.00 | 60 | 1015.3 |
| 20260901033301 | 88 | 133 | 4.0 | 9.0 | 0.00 | 0.00 | 0.00 | 59 | 1015.3 |
| 20260901033256 | 88 | 144 | 5.0 | 10.0 | 0.00 | 0.00 | 0.00 | 59 | 1015.2 |
| 20260901032248 | 88 | 143 | 4.0 | 10.0 | 0.00 | 0.00 | 0.00 | 58 | 1015.1 |
| 20260901031740 | 88 | 146 | 4.0 | 9.0 | 0.00 | 0.00 | 0.00 | 57 | 1015.3 |
| 20260901031235 | 88 | 142 | 5.0 | 12.0 | 0.00 | 0.00 | 0.00 | 56 | 1015.2 |
| 20260901030959 | 89 | 114 | 6.0 | 13.0 | 0.00 | 0.00 | 0.00 | 55 | 1015.1 |
| 20260901030222 | 89 | 144 | 5.0 | 13.0 | 0.00 | 0.00 | 0.00 | 54 | 1015.0 |
| 20260901025716 | 89 | 128 | 5.0 | 13.0 | 0.00 | 0.00 | 0.00 | 53 | 1014.9 |
| 20260901025211 | 89 | 164 | 5.0 | 13.0 | 0.00 | 0.00 | 0.00 | 52 | 1014.8 |
| 20260901024704 | 89 | 150 | 5.0 | 11.0 | 0.00 | 0.00 | 0.00 | 50 | 1014.8 |
| 20260901024159 | 89 | 142 | 5.0 | 11.0 | 0.00 | 0.00 | 0.00 | 48 | 1014.7 |
| 20260901023652 | 89 | 169 | 3.0 | 11.0 | 0.00 | 0.00 | 0.00 | 47 | 1014.6 |
| 20260901023147 | 90 | 197 | 0.0 | 5.0 | 0.00 | 0.00 | 0.00 | 47 | 1014.6 |
| 20260901022641 | 90 | 110 | 0.0 | 2.0 | 0.00 | 0.00 | 0.00 | 47 | 1014.3 |
| 20260901022135 | 90 | 110 | 1.0 | 3.0 | 0.00 | 0.00 | 0.00 | 46 | 1014.2 |
| 20260901021629 | 90 | 110 | 2.0 | 4.0 | 0.00 | 0.00 | 0.00 | 46 | 1014.1 |
| 20260901021123 | 90 | 109 | 2.0 | 6.0 | 0.00 | 0.00 | 0.00 | 47 | 1014.0 |
| 20260901020617 | 91 | 106 | 3.0 | 7.0 | 0.00 | 0.00 | 0.00 | 46 | 1014.0 |
| 20260901020111 | 91 | 118 | 3.0 | 7.0 | 0.00 | 0.00 | 0.00 | 47 | 1013.8 |
| 20260901015835 | 91 | 108 | 3.0 | 8.0 | 0.00 | 0.00 | 0.00 | 47 | 1013.8 |
| 20260901015059 | 91 | 103 | 2.0 | 8.0 | 0.00 | 0.00 | 0.00 | 46 | 1013.7 |
| 20260901014823 | 91 | 133 | 2.0 | 5.0 | 0.00 | 0.00 | 0.00 | 47 | 1013.6 |
| 20260901014047 | 91 | 156 | 1.0 | 5.0 | 0.00 | 0.00 | 0.00 | 46 | 1013.6 |
| 20260901013541 | 92 | 172 | 1.0 | 6.0 | 0.00 | 0.00 | 0.00 | 45 | 1013.5 |
| 20260901013307 | 92 | 173 | 1.0 | 6.0 | 0.00 | 0.00 | 0.00 | 45 | 1013.5 |
| 20260901012801 | 92 | 143 | 1.0 | 3.0 | 0.00 | 0.00 | 0.00 | 45 | 1013.5 |
| 20260901012255 | 93 | 143 | 1.0 | 3.0 | 0.00 | 0.00 | 0.00 | 44 | 1013.4 |
| 20260901011747 | 93 | 143 | 1.0 | 3.0 | 0.00 | 0.00 | 0.00 | 44 | 1013.3 |
| 20260901011011 | 93 | 143 | 1.0 | 4.0 | 0.00 | 0.00 | 0.00 | 43 | 1013.3 |
| 20260901010505 | 93 | 136 | 2.0 | 4.0 | 0.00 | 0.00 | 0.00 | 43 | 1013.2 |
| 20260901005959 | 94 | 138 | 2.0 | 5.0 | 0.00 | 0.00 | 0.00 | 43 | 1013.1 |
| 20260901005723 | 94 | 146 | 2.0 | 8.0 | 0.00 | 0.00 | 0.00 | 43 | 1013.2 |
| 20260901004948 | 94 | 119 | 3.0 | 8.0 | 0.00 | 0.00 | 0.00 | 42 | 1013.2 |
| 20260901004943 | 94 | 107 | 2.0 | 6.0 | 0.00 | 0.00 | 0.00 | 43 | 1013.3 |
| 20260901003934 | 94 | 5 | 2.0 | 6.0 | 0.00 | 0.00 | 0.00 | 43 | 1013.3 |
| 20260901003429 | 94 | 115 | 2.0 | 7.0 | 0.00 | 0.00 | 0.00 | 43 | 1013.3 |
| 20260901003153 | 94 | 118 | 3.0 | 8.0 | 0.00 | 0.00 | 0.00 | 42 | 1013.2 |
| 20260901002417 | 95 | 118 | 3.0 | 9.0 | 0.00 | 0.00 | 0.00 | 42 | 1013.2 |
| 20260901001911 | 95 | 155 | 3.0 | 9.0 | 0.00 | 0.00 | 0.00 | 42 | 1013.1 |
| 20260901001405 | 95 | 82 | 3.0 | 8.0 | 0.00 | 0.00 | 0.00 | 42 | 1013.2 |
| 20260901000859 | 95 | 60 | 3.0 | 7.0 | 0.00 | 0.00 | 0.00 | 43 | 1013.2 |
| 20260901000353 | 95 | 133 | 3.0 | 8.0 | 0.00 | 0.00 | 0.00 | 42 | 1013.0 |
| 20260831235847 | 95 | 81 | 3.0 | 8.0 | 0.00 | 0.00 | 0.00 | 43 | 1013.0 |
| 20260831235341 | 95 | 101 | 2.0 | 7.0 | 0.00 | 0.00 | 0.00 | 44 | 1012.9 |
| 20260831234835 | 95 | 100 | 2.0 | 8.0 | 0.00 | 0.00 | 0.00 | 44 | 1013.0 |